TimeMDT,TemperatureF,Dew PointF,Humidity,Sea Level PressureIn,VisibilityMPH,Wind Direction,Wind SpeedMPH,Gust SpeedMPH,PrecipitationIn,Events,Conditions,WindDirDegrees,DateUTC
12:56 AM,39.0,28.0,65,30.11,-9999.0,SW,5.8,-,N/A,,Unknown,230,2013-10-24 06:56:00
1:56 AM,37.0,28.0,70,30.12,-9999.0,WSW,3.5,-,N/A,,Unknown,250,2013-10-24 07:56:00
2:56 AM,37.9,28.9,70,30.12,-9999.0,West,4.6,-,N/A,,Unknown,260,2013-10-24 08:56:00
3:56 AM,35.1,28.0,76,30.14,-9999.0,West,3.5,-,N/A,,Unknown,260,2013-10-24 09:56:00
4:56 AM,37.0,28.9,73,30.16,-9999.0,ENE,3.5,-,N/A,,Unknown,70,2013-10-24 10:56:00
5:56 AM,34.0,30.9,89,30.20,-9999.0,East,5.8,-,N/A,,Unknown,80,2013-10-24 11:56:00
6:56 AM,34.0,33.1,96,30.25,-9999.0,ESE,6.9,-,N/A,,Unknown,120,2013-10-24 12:56:00
7:56 AM,36.0,35.1,97,30.28,-9999.0,ESE,10.4,-,N/A,,Unknown,110,2013-10-24 13:56:00
8:56 AM,39.9,34.0,79,30.29,-9999.0,ESE,15.0,-,N/A,,Unknown,120,2013-10-24 14:56:00
9:56 AM,44.1,34.0,68,30.30,-9999.0,ESE,13.8,-,N/A,,Unknown,120,2013-10-24 15:56:00
10:56 AM,46.9,34.0,61,30.29,-9999.0,SE,15.0,-,N/A,,Unknown,140,2013-10-24 16:56:00
11:56 AM,50.0,34.0,54,30.28,-9999.0,SE,10.4,21.9,N/A,,Unknown,140,2013-10-24 17:56:00
12:56 PM,53.1,34.0,48,30.25,-9999.0,SE,12.7,20.7,N/A,,Unknown,140,2013-10-24 18:56:00
1:56 PM,55.0,34.0,45,30.22,-9999.0,SSE,16.1,-,N/A,,Unknown,160,2013-10-24 19:56:00
2:56 PM,55.9,34.0,44,30.20,-9999.0,SSE,17.3,23.0,N/A,,Unknown,160,2013-10-24 20:56:00
3:56 PM,55.0,34.0,45,30.21,-9999.0,South,15.0,20.7,N/A,,Unknown,170,2013-10-24 21:56:00
4:56 PM,54.0,33.1,45,30.20,-9999.0,SSE,12.7,-,N/A,,Unknown,150,2013-10-24 22:56:00
5:56 PM,48.9,33.1,54,30.22,-9999.0,SE,11.5,-,N/A,,Unknown,130,2013-10-24 23:56:00
6:56 PM,45.0,33.1,63,30.25,-9999.0,ESE,9.2,-,N/A,,Unknown,120,2013-10-25 00:56:00
7:56 PM,43.0,33.1,68,30.27,-9999.0,SE,10.4,-,N/A,,Unknown,130,2013-10-25 01:56:00
8:56 PM,39.0,32.0,76,30.29,-9999.0,SE,10.4,-,N/A,,Unknown,140,2013-10-25 02:56:00
9:56 PM,37.9,30.9,76,30.30,-9999.0,SE,8.1,-,N/A,,Unknown,140,2013-10-25 03:56:00
10:56 PM,36.0,30.9,82,30.30,-9999.0,South,6.9,-,N/A,,Unknown,170,2013-10-25 04:56:00
11:56 PM,34.0,30.0,85,30.29,-9999.0,South,6.9,-,N/A,,Unknown,170,2013-10-25 05:56:00